Regional Weather Roundup
Issued by NWS

Home | Current Version | Previous Version | Text Only | Print | Product List | Glossary Off
Versions: 1 2 3 4 5 6 7 8 9 10 11 12 13 14 15 16 17 18 19 20 21 22 23 24 25 26 27 28 29 30 31 32 33 34 35 36 37 38 39 40 41 42 43 44 45 46 47 48 49 50

000
ASUS45 KSLC 301410
RWRUT

UTAH REGIONAL WEATHER ROUNDUP
NATIONAL WEATHER SERVICE SALT LAKE CITY UT
700 AM MST FRI JAN 30 2015

UTZ001>011-023>025-301500-

NORTHERN UTAH

CITY           SKY/WX    TMP DP  RH WIND       PRES   REMARKS
BRIGHAM CITY   MOCLDY    35  32  87 NW3       30.16F
HILL AFB       MOCLDY    38  28  67 E12       30.14F WCI  31
LOGAN          FOG       32  32 100 CALM      30.18F VSB 1/4
OGDEN          CLOUDY    35  33  92 NW7       30.14F WCI  29
PROVO AIRPORT  CLOUDY    36  34  93 CALM      30.14F FOG
SALT LAKE CITY CLOUDY    37  35  92 N5        30.14F WCI  33
VERNAL         CLOUDY    35  33  92 CALM      30.20F
WENDOVER       CLOUDY    37  30  75 CALM      30.16S
HEBER CITY     CLOUDY    32  32 100 CALM      30.16S FOG
WEST JORDAN    CLOUDY    37  37 100 CALM      30.14F

$$

UTZ012>022-026-027-301500-

SOUTHERN/CENTRAL UTAH

CITY           SKY/WX    TMP DP  RH WIND       PRES   REMARKS
BLANDING       CLOUDY    32  32 100 N7        30.25F WCI  26
BRYCE CANYON   LGT SNOW  31  30  96 S3        30.09F
CEDAR CITY     CLOUDY    36  35  96 CALM      30.03F
DELTA          CLOUDY    37  37 100 N5        30.10F VSB 1   WCI  33
HANKSVILLE     CLOUDY    39  37  93 CALM      30.17F
MILFORD        LGT RAIN  39  37  92 N17       30.06F FOG     WCI  30
MOAB/CYNLANDS  CLOUDY    41  38  89 S3        30.14F
PRICE          MIX PCPN  37  34  89 CALM      30.16F
ST GEORGE      CLOUDY    46  43  87 CALM      30.03F
KANAB            N/A     39  36  87 N9G17     30.08F WCI  33

$$

REGIONAL REPORTS     COLORADO/ARIZONA

CITY           SKY/WX    TMP DP  RH WIND       PRES   REMARKS
CRAIG, CO      CLOUDY    33  31  92 NE6       30.23S WCI  28
GRAND JUNCTION CLOUDY    36  33  89 CALM      30.17F
RIFLE          CLOUDY    32  28  85 E5        30.20F WCI  27
MONTROSE       CLOUDY    39  31  72 SE5       30.21S
CORTEZ         CLOUDY    36  32  85 NW3       30.18F
PAGE, AZ       NOT AVBL
GRAND CANYON   LGT RAIN  36  34  92 E9        30.02F WCI  29
KINGMAN        LGT RAIN  47  46  97 NE6       29.94S
FLAGSTAFF      LGT RAIN  37  35  92 E7        30.02S VSB 1   WCI  32

$$

REGIONAL REPORTS    NEVADA/IDAHO/WYOMING

CITY           SKY/WX    TMP DP  RH WIND       PRES   REMARKS
LAS VEGAS, NV  CLOUDY    54  46  74 SW3       29.93F
ELY            CLOUDY    33  33 100 N14       30.10F WCI  23
ELKO           MOCLDY    32  30  92 CALM      30.12F
POCATELLO, ID  CLEAR     28  28 100 CALM      30.21F
BURLEY         CLOUDY    31  29  92 CALM      30.21F
EVANSTON, WY   CLOUDY    29  23  78 NE7       30.17F WCI  22
ROCK SPRINGS   MOCLDY    29  26  89 CALM      30.20S

$$



USA.gov is the U.S. government's official web portal to all federal, state and local government web resources and services.